Tracking 22456 objects as of 7-Mar-2021
HD Live streaming from Space Station
objects crossing your sky now

DIAMANT R/B

Track DIAMANT R/B now!
10-day predictions


NORAD ID: 2017
Int'l Code: 1966-013B
Perigee: 503.3 km
Apogee: 2,166.6 km
Inclination: 34.1 °
Period: 112.2 minutes
Semi major axis: 7705 km
RCS: 0.7635 m2 (medium)
Launch date: February 17, 1966
Source: France (FR)
Launch site: HAMMA GUIRA SPACE TRACK RANGE (HGSTR)

Note: This is a ROCKET BODY
aabbcc
Your satellite tracking list
Your tracking list is empty




NASA's NSSDC Master Catalog

Two Line Element Set (TLE):
1 02017U 66013B   21065.31612958  .00000237  00000-0  68867-4 0  9996
2 02017  34.0658 288.9240 1079202  13.1374 349.5177 12.83406425521088
Source of the keplerian elements: AFSPC